This is the latest recevied weather packets stored in our database for station/object W4TJP. If no packets are shown the sender has not sent any weather packets the latest 10 day(s).
| Time | Temp. | Humidity | Pressure | Rain* | Wind** | Luminosity | Snow |
|---|---|---|---|---|---|---|---|
| 1777298602 | 20.56° C | 75% | 1017.8 hPa | 0 mm | - | 451 W/m² | - |
| 1777298299 | 20.56° C | 75% | 1017.7 hPa | 0 mm | - | 419 W/m² | - |
| 1777297993 | 20° C | 77% | 1017.7 hPa | 0 mm | - | 439 W/m² | - |
| 1777297690 | 20° C | 77% | 1018.1 hPa | 0 mm | - | 393 W/m² | - |
| 1777297388 | 19.44° C | 80% | 1017.6 hPa | 0 mm | - | 361 W/m² | - |
| 1777297084 | 18.89° C | 81% | 1017.8 hPa | 0 mm | - | 340 W/m² | - |
| 1777296781 | 19.44° C | 80% | 1017.6 hPa | 0 mm | - | 306 W/m² | - |
| 1777296477 | 18.89° C | 80% | 1017.7 hPa | 0 mm | - | 282 W/m² | - |
| 1777296173 | 18.89° C | 82% | 1017.6 hPa | 0 mm | - | 245 W/m² | - |
| 1777295869 | 18.33° C | 85% | 1017.5 hPa | 0 mm | - | 209 W/m² | - |
| 1777295567 | 18.89° C | 84% | 1017.6 hPa | 0 mm | - | 206 W/m² | - |
| 1777295264 | 18.33° C | 84% | 1017.4 hPa | 0 mm | - | 209 W/m² | - |
| 1777294962 | 18.33° C | 84% | 1017.3 hPa | 0 mm | - | 183 W/m² | - |
| 1777294657 | 18.33° C | 84% | 1017.4 hPa | 0 mm | - | 78 W/m² | - |
| 1777294354 | 18.33° C | 86% | 1017.5 hPa | 0 mm | - | 131 W/m² | - |
| 1777294050 | 17.78° C | 87% | 1017.5 hPa | 0 mm | - | 164 W/m² | - |
| 1777293748 | 17.22° C | 88% | 1017.2 hPa | 0 mm | - | 128 W/m² | - |
| 1777293442 | 16.67° C | 91% | 1017.3 hPa | 0 mm | - | 66 W/m² | - |
| 1777293138 | 16.67° C | 90% | 1017 hPa | 0 mm | - | 61 W/m² | - |
| 1777292837 | 16.67° C | 90% | 1017.3 hPa | 0 mm | - | 58 W/m² | - |
| 1777292534 | 16.67° C | 89% | 1017.4 hPa | 0 mm | - | 66 W/m² | - |
| 1777292230 | 16.11° C | 91% | 1017 hPa | 0 mm | - | 72 W/m² | - |
| 1777291926 | 15.56° C | 93% | 1017 hPa | 0 mm | - | 68 W/m² | - |
| 1777291623 | 15.56° C | 94% | 1017 hPa | 0 mm | - | 57 W/m² | - |
| 1777291320 | 15° C | 96% | 1017.2 hPa | 0 mm | - | 44 W/m² | - |
* Rain latest hour (hover to see other rain measurements)
** Current wind speed in m/s (hover to see current wind gust speed)